Torna al catalogo

ACS 3

AttivoComunicazioniPO
NORAD 59588·PAYLOAD·🇺🇸 United States

Lanciato Apr 23, 2024 da Rocket Lab Launch Complex 1

Loading…

Prossimi Passaggi (prossime 24 ore)

TLE

AggiornatoSource: Space-Track

Epoca: Sep 14, 2026, 10:35 UTC

1 59588U 24077B   26257.44107451  .00025677  00000-0  17747-1 0  9997
2 59588  97.2173 156.7420 0076971 331.9080  27.7944 13.97555799120494

Traccia ACS 3 in tempo reale con AllMySat

Download on the App Store